When you browse on this site, cookies collect data to enhance your experience and personalize the content and advertising you see.
Visit our Privacy Policy to learn more. By continuing to use the site, you agree to this use of cookies and data.

Hourly Weather Caracas

Today, 10 July, Friday

Time Temperature Precipitation Wind Pressure Humidity
00:00 +16°C° 0 mm 2 mps 649 mmHg 93%
01:00 +16°C° 0 mm 2 mps 649 mmHg 93%
02:00 +16°C° 0 mm 2 mps 649 mmHg 94%
03:00 +16°C° 0 mm 2 mps 649 mmHg 94%
04:00 +16°C° 0 mm 2 mps 649 mmHg 94%
05:00 +16°C° 0 mm 2 mps 649 mmHg 94%
06:00 +17°C° 0 mm 2 mps 649 mmHg 90%
07:00 +18°C° 0 mm 2 mps 650 mmHg 87%
08:00 +19°C° 0 mm 2 mps 650 mmHg 83%
09:00 +21°C° 0 mm 2 mps 651 mmHg 76%
10:00 +22°C° 0 mm 3 mps 651 mmHg 68%
11:00 +25°C° 0 mm 3 mps 652 mmHg 61%
12:00 +25°C° 0.2 mm 3 mps 651 mmHg 62%
13:00 +25°C° 0.2 mm 3 mps 651 mmHg 62%
14:00 +25°C° 0.2 mm 3 mps 651 mmHg 63%
15:00 +25°C° 0.4 mm 4 mps 650 mmHg 67%
16:00 +23°C° 0.4 mm 4 mps 649 mmHg 71%
17:00 +22°C° 0.4 mm 4 mps 649 mmHg 75%
18:00 +21°C° 0.2 mm 3 mps 649 mmHg 81%
19:00 +19°C° 0.2 mm 3 mps 649 mmHg 87%
20:00 +18°C° 0.2 mm 3 mps 649 mmHg 93%
21:00 +17°C° 0 mm 3 mps 649 mmHg 93%
22:00 +17°C° 0 mm 2 mps 649 mmHg 94%
23:00 +17°C° 0 mm 2 mps 650 mmHg 94%

Tomorrow, 11 July, Saturday

Time Temperature Precipitation Wind Pressure Humidity
00:00 +17°C° 0 mm 2 mps 649 mmHg 94%
01:00 +17°C° 0 mm 2 mps 649 mmHg 94%
02:00 +17°C° 0 mm 2 mps 649 mmHg 94%
03:00 +17°C° 0.1 mm 2 mps 649 mmHg 94%
04:00 +17°C° 0.1 mm 2 mps 648 mmHg 94%
05:00 +17°C° 0.1 mm 2 mps 648 mmHg 94%
06:00 +17°C° 0.2 mm 2 mps 649 mmHg 94%
07:00 +17°C° 0.2 mm 2 mps 649 mmHg 93%
08:00 +18°C° 0.2 mm 2 mps 649 mmHg 92%
09:00 +20°C° 0 mm 2 mps 650 mmHg 83%
10:00 +22°C° 0 mm 3 mps 651 mmHg 73%
11:00 +25°C° 0 mm 3 mps 651 mmHg 64%
12:00 +25°C° 0.3 mm 3 mps 651 mmHg 64%
13:00 +25°C° 0.3 mm 3 mps 650 mmHg 65%
14:00 +25°C° 0.3 mm 3 mps 650 mmHg 65%
15:00 +25°C° 0.3 mm 3 mps 649 mmHg 69%
16:00 +24°C° 0.3 mm 3 mps 649 mmHg 73%
17:00 +22°C° 0.3 mm 3 mps 648 mmHg 77%
18:00 +21°C° 0.1 mm 3 mps 648 mmHg 82%
19:00 +19°C° 0.1 mm 3 mps 648 mmHg 86%
20:00 +18°C° 0.1 mm 3 mps 648 mmHg 91%
21:00 +18°C° 0 mm 3 mps 649 mmHg 92%
22:00 +17°C° 0 mm 2 mps 649 mmHg 92%
23:00 +17°C° 0 mm 2 mps 649 mmHg 93%

Day after tomorrow, 12 July, Sunday

Time Temperature Precipitation Wind Pressure Humidity
00:00 +17°C° 0 mm 2 mps 649 mmHg 91%
01:00 +16°C° 0 mm 2 mps 649 mmHg 90%
02:00 +16°C° 0 mm 2 mps 648 mmHg 89%
03:00 +17°C° 0.1 mm 2 mps 648 mmHg 90%
04:00 +17°C° 0.1 mm 2 mps 648 mmHg 92%
05:00 +18°C° 0.1 mm 1 mps 648 mmHg 93%
06:00 +19°C° 0.1 mm 1 mps 649 mmHg 92%
07:00 +19°C° 0.1 mm 1 mps 649 mmHg 90%
08:00 +20°C° 0.1 mm 1 mps 650 mmHg 89%
09:00 +21°C° 0.3 mm 1 mps 650 mmHg 84%
10:00 +21°C° 0.3 mm 2 mps 651 mmHg 79%
11:00 +23°C° 0.3 mm 2 mps 651 mmHg 74%
12:00 +24°C° 0.9 mm 2 mps 651 mmHg 76%
13:00 +24°C° 0.9 mm 2 mps 650 mmHg 78%
14:00 +24°C° 0.9 mm 2 mps 650 mmHg 80%
15:00 +24°C° 1.3 mm 2 mps 649 mmHg 82%
16:00 +23°C° 1.3 mm 2 mps 649 mmHg 85%
17:00 +21°C° 1.3 mm 2 mps 648 mmHg 87%
18:00 +20°C° 0.3 mm 2 mps 648 mmHg 90%
19:00 +19°C° 0.3 mm 2 mps 648 mmHg 92%
20:00 +18°C° 0.3 mm 2 mps 649 mmHg 94%
21:00 +18°C° 0 mm 2 mps 649 mmHg 94%
22:00 +17°C° 0 mm 2 mps 649 mmHg 94%
23:00 +17°C° 0 mm 2 mps 650 mmHg 93%

13 July, Monday

Time Temperature Precipitation Wind Pressure Humidity
00:00 +17°C° 0 mm 2 mps 649 mmHg 93%
01:00 +17°C° 0 mm 2 mps 649 mmHg 93%
02:00 +17°C° 0 mm 2 mps 648 mmHg 93%
03:00 +17°C° 0 mm 2 mps 649 mmHg 94%
04:00 +17°C° 0 mm 2 mps 649 mmHg 94%
05:00 +16°C° 0 mm 2 mps 649 mmHg 94%
06:00 +17°C° 0 mm 2 mps 649 mmHg 92%
07:00 +18°C° 0 mm 2 mps 650 mmHg 90%
08:00 +19°C° 0 mm 2 mps 650 mmHg 88%
09:00 +21°C° 0 mm 2 mps 651 mmHg 81%
10:00 +22°C° 0 mm 3 mps 651 mmHg 74%
11:00 +24°C° 0 mm 3 mps 652 mmHg 67%
12:00 +25°C° 0.1 mm 3 mps 651 mmHg 65%
13:00 +25°C° 0.1 mm 3 mps 651 mmHg 62%
14:00 +26°C° 0.1 mm 3 mps 651 mmHg 60%
15:00 +25°C° 0.1 mm 3 mps 650 mmHg 63%
16:00 +25°C° 0.1 mm 3 mps 650 mmHg 66%
17:00 +24°C° 0.1 mm 3 mps 649 mmHg 69%
18:00 +22°C° 0 mm 3 mps 649 mmHg 77%
19:00 +20°C° 0 mm 3 mps 649 mmHg 85%
20:00 +18°C° 0 mm 2 mps 649 mmHg 92%
21:00 +18°C° 0 mm 2 mps 649 mmHg 93%
22:00 +17°C° 0 mm 2 mps 650 mmHg 93%
23:00 +17°C° 0 mm 2 mps 650 mmHg 93%

14 July, Tuesday

Time Temperature Precipitation Wind Pressure Humidity
00:00 +17°C° 0 mm 2 mps 650 mmHg 93%
01:00 +17°C° 0 mm 2 mps 649 mmHg 94%
02:00 +17°C° 0 mm 2 mps 649 mmHg 94%
03:00 +17°C° 0 mm 2 mps 649 mmHg 94%
04:00 +17°C° 0 mm 2 mps 649 mmHg 93%
05:00 +17°C° 0 mm 2 mps 649 mmHg 93%
06:00 +17°C° 0 mm 2 mps 649 mmHg 91%
07:00 +18°C° 0 mm 2 mps 650 mmHg 89%
08:00 +19°C° 0 mm 2 mps 650 mmHg 87%
09:00 +21°C° 0 mm 2 mps 651 mmHg 79%
10:00 +23°C° 0 mm 2 mps 652 mmHg 72%
11:00 +25°C° 0 mm 2 mps 652 mmHg 64%
12:00 +25°C° 0.3 mm 2 mps 652 mmHg 63%
13:00 +26°C° 0.3 mm 2 mps 651 mmHg 62%
14:00 +26°C° 0.3 mm 2 mps 651 mmHg 61%
15:00 +25°C° 0.4 mm 2 mps 650 mmHg 67%
16:00 +24°C° 0.4 mm 2 mps 650 mmHg 73%
17:00 +23°C° 0.4 mm 2 mps 649 mmHg 79%
18:00 +20°C° 0.1 mm 2 mps 649 mmHg 84%
19:00 +19°C° 0.1 mm 2 mps 649 mmHg 88%
20:00 +18°C° 0.1 mm 2 mps 649 mmHg 92%
21:00 +18°C° 0 mm 2 mps 650 mmHg 93%
22:00 +17°C° 0 mm 2 mps 650 mmHg 93%
23:00 +17°C° 0 mm 2 mps 650 mmHg 94%

15 July, Wednesday

Time Temperature Precipitation Wind Pressure Humidity
00:00 +17°C° 0 mm 2 mps 649 mmHg 93%
01:00 +16°C° 0 mm 2 mps 649 mmHg 93%
02:00 +16°C° 0 mm 2 mps 649 mmHg 92%
03:00 +16°C° 0 mm 2 mps 648 mmHg 92%
04:00 +16°C° 0 mm 2 mps 648 mmHg 92%
05:00 +16°C° 0 mm 2 mps 648 mmHg 91%
06:00 +17°C° 0 mm 2 mps 649 mmHg 90%
07:00 +18°C° 0 mm 1 mps 649 mmHg 88%
08:00 +19°C° 0 mm 1 mps 650 mmHg 87%
09:00 +20°C° 0 mm 2 mps 651 mmHg 78%
10:00 +23°C° 0 mm 2 mps 651 mmHg 69%
11:00 +25°C° 0 mm 2 mps 652 mmHg 60%
12:00 +25°C° 0.3 mm 2 mps 651 mmHg 61%
13:00 +25°C° 0.3 mm 2 mps 651 mmHg 62%
14:00 +25°C° 0.3 mm 3 mps 650 mmHg 63%
15:00 +24°C° 0.8 mm 2 mps 650 mmHg 72%
16:00 +23°C° 0.8 mm 2 mps 649 mmHg 80%
17:00 +21°C° 0.8 mm 2 mps 648 mmHg 89%
18:00 +20°C° 0.3 mm 2 mps 648 mmHg 90%
19:00 +19°C° 0.3 mm 2 mps 648 mmHg 92%
20:00 +18°C° 0.3 mm 2 mps 648 mmHg 94%
21:00 +17°C° 0 mm 2 mps 648 mmHg 94%
22:00 +17°C° 0 mm 2 mps 649 mmHg 93%
23:00 +17°C° 0 mm 2 mps 649 mmHg 93%
Show more